TimeCST,TemperatureF,Dew PointF,Humidity,Sea Level PressureIn,VisibilityMPH,Wind Direction,Wind SpeedMPH,Gust SpeedMPH,PrecipitationIn,Events,Conditions,WindDirDegrees,DateUTC
12:52 AM,1.9,-2.9,80,30.35,-9999.0,North,11.5,-,N/A,,Unknown,350,2012-12-09 06:52:00
1:52 AM,1.0,-2.9,83,30.38,-9999.0,North,11.5,-,N/A,,Unknown,350,2012-12-09 07:52:00
2:52 AM,-0.0,-4.0,83,30.40,-9999.0,North,11.5,-,N/A,,Unknown,350,2012-12-09 08:52:00
3:52 AM,-0.0,-5.1,79,30.40,-9999.0,North,12.7,-,N/A,,Unknown,350,2012-12-09 09:52:00
4:52 AM,-0.9,-5.1,83,30.43,-9999.0,NNW,13.8,-,N/A,,Unknown,340,2012-12-09 10:52:00
5:52 AM,-2.9,-7.1,82,30.46,-9999.0,NNW,13.8,-,N/A,,Unknown,340,2012-12-09 11:52:00
6:52 AM,-5.1,-8.0,87,30.48,-9999.0,North,10.4,-,N/A,,Unknown,350,2012-12-09 12:52:00
7:52 AM,-8.0,-11.9,83,30.51,-9999.0,NNW,10.4,-,N/A,,Unknown,340,2012-12-09 13:52:00
8:52 AM,-4.0,-7.1,87,30.52,-9999.0,North,4.6,-,N/A,,Unknown,360,2012-12-09 14:52:00
9:52 AM,-0.0,-2.0,91,30.53,-9999.0,NNW,6.9,-,N/A,,Unknown,340,2012-12-09 15:52:00
10:52 AM,3.9,1.0,88,30.52,-9999.0,North,9.2,-,N/A,,Unknown,350,2012-12-09 16:52:00
11:52 AM,3.9,1.0,88,30.51,-9999.0,NW,6.9,-,N/A,,Unknown,320,2012-12-09 17:52:00
12:52 PM,3.0,-0.0,87,30.50,-9999.0,West,4.6,-,N/A,,Unknown,270,2012-12-09 18:52:00
1:52 PM,5.0,-0.0,80,30.46,-9999.0,WNW,8.1,-,N/A,,Unknown,290,2012-12-09 19:52:00
2:52 PM,7.0,1.9,80,30.43,-9999.0,West,8.1,-,N/A,,Unknown,280,2012-12-09 20:52:00
3:52 PM,7.0,1.0,77,30.42,-9999.0,West,4.6,-,N/A,,Unknown,280,2012-12-09 21:52:00
4:52 PM,6.1,1.9,83,30.40,-9999.0,Calm,Calm,-,N/A,,Unknown,0,2012-12-09 22:52:00
5:52 PM,5.0,-0.0,80,30.37,-9999.0,Calm,Calm,-,N/A,,Unknown,0,2012-12-09 23:52:00
6:52 PM,1.0,-2.0,87,30.34,-9999.0,SW,3.5,-,N/A,,Unknown,220,2012-12-10 00:52:00
7:52 PM,3.9,1.0,88,30.32,-9999.0,SSW,9.2,-,N/A,,Unknown,210,2012-12-10 01:52:00
8:52 PM,3.0,-0.0,87,30.27,-9999.0,SSW,6.9,-,N/A,,Unknown,200,2012-12-10 02:52:00
9:52 PM,3.0,-0.0,87,30.23,-9999.0,SSW,6.9,-,N/A,,Unknown,200,2012-12-10 03:52:00
10:52 PM,5.0,1.9,87,30.16,-9999.0,South,11.5,-,N/A,,Unknown,190,2012-12-10 04:52:00
11:52 PM,3.0,-0.0,87,30.15,-9999.0,South,9.2,-,N/A,,Unknown,190,2012-12-10 05:52:00